www.pogodaiklimat.ru

Погода и климат >> Архив погоды >> Украина >> Ботиево


ПОГОДА в Ботиево

  • Прогноз погоды в Ботиево
  • Монитор погоды в Ботиево

АРХИВ ПОГОДЫ в Ботиево

Время (UTC), дата Ветер
(напр.,м/с)
 
Видим.   Явления Облачность Т
(С)
Тd
(С)
f
(%)
Тe
(С)
Тes
(С)
Комфортность P
(гПа)
Po
(гПа)
Тmin
(С)
Tmax
(С)
R
(мм)
R24
(мм)
S
(см)
06 9.06 СВ 2 10 км {гроза, ливн. осадки} 8/0
[Ac cast Ci fib]
+24.6 +17.6 65 +29 +36 душно 1018.1 1015.9 +18.1 12
09 9.06 ЮВ 3 10 км 8/0
[Ci fib]
+26.7 +20.8 70 +33 +46 очень
душно
1018.6 1016.4
12 9.06 ЮВ 5 10 км 3/0
[Ci]
+29.1 +16.3 46 +32 +39 душно 1017.8 1015.6
15 9.06 В 4 10 км 4/0
[Ci]
+29.2 +15.6 44 +32 +34 душно 1016.8 1014.6
18 9.06 С 1 10 км 4/0
[Ci]
+24.0 +17.3 66 +28 +28 душно 1017.0 1014.8 +29.7
00 10.06 С 2 16 км ясно +19.2 +14.0 72 +21 +21 комфорт 1016.5 1014.2
03 10.06 С 2 10 км 4/0
[Ci fib]
+19.6 +13.3 67 +22 +22 комфорт 1016.5 1014.2
06 10.06 В 3 10 км 6/0
[Cs]
+27.0 +15.4 49 +30 +37 душно 1016.4 1014.2 +18.2
09 10.06 В 5 10 км 3/0
[Ci fib]
+31.8 +15.0 36 +34 +43 душно 1016.3 1014.1
12 10.06 СВ 6 10 км 6/0
[Ci]
+32.5 +14.2 33 +34 +39 очень
жарко
1015.5 1013.3
15 10.06 В 6 10 км 8/0
[Ci]
+31.4 +13.5 34 +33 +34 жарко 1014.7 1012.5
18 10.06 СВ 2 10 км 8/0
[Ci fib]
+24.6 +13.7 51 +27 +27 жарко 1014.6 1012.4 +32.7
21 10.06 С 3 16 км 8/0
[Cs]
+20.0 +14.5 71 +22 +22 комфорт 1014.3 1012.1
00 11.06 С 3 15 км 3/0
[Ci fib]
+19.6 +14.0 70 +22 +22 комфорт 1013.4 1011.1
03 11.06 СВ 3 10 км 3/0
[Ci fib]
+21.2 +11.8 55 +23 +24 комфорт 1013.3 1011.1
06 11.06 СВ 3 10 км ясно +27.5 +15.0 46 +30 +38 жарко 1013.3 1011.1 +18.6
09 11.06 В 5 10 км ясно +31.9 +17.2 41 +35 +45 очень
душно
1013.1 1010.9
12 11.06 В 5 10 км 3/0
[Ci fib]
+32.2 +14.4 34 +34 +41 душно 1012.2 1010.0
15 11.06 В 4 10 км 1/0
[Ci fib]
+30.0 +16.0 43 +33 +35 душно 1011.7 1009.5
18 11.06 С 3 10 км 1/0
[Ci fib]
+25.6 +13.7 48 +28 +28 жарко 1011.5 1009.3 +32.5
21 11.06 С 2 16 км ясно +21.7 +13.0 58 +24 +24 комфорт 1011.1 1008.9
00 12.06 СВ 2 14 км ясно +22.6 +11.8 50 +25 +25 комфорт 1009.9 1007.6
03 12.06 СВ 1 10 км 3/0
[Ac cast]
+21.2 +11.3 53 +23 +24 комфорт 1009.9 1007.7
06 12.06 В 3 10 км 3/0
[Ci fib]
+28.5 +16.5 48 +32 +39 душно 1010.0 1007.8 +20.6
09 12.06 СВ 6 10 км 6/0
[Cs]
+29.5 +14.3 39 +31 +38 жарко 1010.0 1007.8
12 12.06 В 6 10 км 4/0
[Cs]
+31.1 +16.1 40 +34 +39 душно 1009.5 1007.3
15 12.06 СВ 6 10 км 9/9 660 м
[Cb cap]
+28.4 +14.3 42 +31 +31 душно 1009.3 1007.1
18 12.06 С 5 10 км {ливн. осадки} 10/8 700 м
[Cb cap Ci fib]
+25.2 +14.5 51 +28 +28 жарко 1009.2 1007.0 +32.7 0.0
21 12.06 С 3 15 км гроза без осадков 8/3 600 м
[Cb cap Ci fib]
+23.3 +14.8 59 +27 +27 душно 1009.5 1007.3
00 13.06 С 1 14 км гроза без осадков 10/10 570 м
[Cb cap]
+21.9 +14.6 63 +25 +25 комфорт 1010.8 1008.5
03 13.06 С 5 10 км {гроза, ливн. осадки} 10/10 570 м
[Cb cap]
+20.6 +16.6 78 +24 +24 комфорт 1010.3 1008.1
06 13.06 С 4 10 км {гроза, ливн. осадки} 10/3 600 м
[Cb cap Cs]
+24.8 +16.2 59 +28 +32 жарко 1010.6 1008.4 +19.2 4
12 13.06 В 5 10 км 6/0
[Ci]
+31.6 +16.2 40 +35 +41 очень
душно
1011.5 1009.3
18 13.06 З 1 10 км 10/0
[Cs]
+25.1 +18.1 65 +29 +29 душно 1013.0 1010.8 +31.6
00 14.06 С 2 13 км 8/0
[Ac trans Cs]
+21.0 +14.3 66 +25 +25 комфорт 1013.6 1011.3
06 14.06 СВ 6 10 км 6/0
[Ac cast Ci fib]
+26.3 +17.4 58 +30 +33 душно 1015.5 1013.3 +20.1
12 14.06 СВ 6 10 км 8/0
[Cs]
+31.2 +15.9 40 +34 +39 душно 1016.0 1013.8
18 14.06 В 2 10 км 1/0
[Ci fib]
+24.4 +14.3 53 +27 +27 жарко 1015.9 1013.7 +31.6
00 15.06 С 1 15 км 10/0
[Cs]
+16.7 +9.7 63 +18 +18 1015.7 1013.4
06 15.06 СВ 3 10 км 6/0
[Cs]
+27.0 +10.5 36 +28 +35 жарко 1014.8 1012.6 +15.0
12 15.06 В 3 10 км 3/0
[Ci fib]
+31.0 +12.7 33 +32 +43 жарко 1012.9 1010.7
18 15.06 штиль 0 10 км ясно +24.2 +11.4 45 +26 +26 жарко 1011.9 1009.7 +31.3

 

Местоположение метеостанции Ботиево (Запорожская область, Украина): широта 46.68 долгота 35.85 высота над уровнем моря 19 м.

В архиве по умолчанию представлена погода в Ботиево за последнюю неделю. Архивные данные за месяц целиком и за предыдущие месяцы, начиная с января 2011 года, Вы можете получить, выбрав интересующий диапазон дат из раскрывающегося списка и нажав кнопку "Ввод!".


*Определитесь, кто Вы:
робот инопланетянин человек

Внимание! Время в таблицах - всемирное. Для получения местного времени необходимо прибавить поправку, которая равна 2 ч.

Смотрите также архив погоды в соседних городах и на ближайших метеорологических станциях:

Погода в Мелитополе (Запорожская область, Украина) (40 км)
Погода в Бердянске (Запорожская область, Украина) (71 км)
Погода в Пришибе (Запорожская область, Украина) (77 км)
Погода в Кирилловке (Запорожская область, Украина) (81 км)
Погода в Геническе (Херсонская область, Украина) (97 км)
Погода в Нижних Серогозах (Херсонская область, Украина) (112 км)
Погода в Гуляйполе (Запорожская область, Украина) (114 км)
Погода в Мариуполе (Донецкая область, Украина) (131 км)
Погода в Мысовом (Крым, Россия) (137 км)
Погода в Запорожье (Запорожская область, Украина) (139 км)

Пояснения к столбцам:

Ветер - указаны скорость ветра в м/с - средняя за 10 мин, порывы в срок и между сроками (в фигурных скобках) и направление, откуда дует ветер: С - северный, СВ - северо-восточный, В - восточный, ЮВ - юго-восточный, Ю - южный, ЮЗ - юго-западный, З - западный, СЗ - северо-западный.
Видимость - горизонтальная дальность видимости в метрах или километрах. При видимости от 1 до 10 км при отсутствии осадков обычно наблюдается дымка, при ухудшении видимости до 1 км и менее - туман. В сухую погоду видимость может ухудшаться дымом, пылью или мглою.
Явления - указаны атмосферные явления, наблюдавшиеся в срок или в последний час перед сроком; фигурными скобками обозначены явления, наблюдавшиеся между сроками (за 1-3 часа до срока); квадратными скобками обозначены град или гололедные отложения с указанием их диаметра в мм.
Облачность - указаны через наклонную черту общая и нижняя облачность в баллах и высота нижней границы облаков в метрах; квадратными скобками обозначены формы облаков: Ci - перистые, Cs - перисто-слоистые, Cc - перисто-кучевые, Ac - высококучевые, As - высокослоистые, Sc - слоисто-кучевые, Ns - слоисто-дождевые, Cu - кучевые, Cb - кучево-дождевые. Подробнее классификацию облаков см. в Атласе облаков (PDF).
T - Температура воздуха - температура, измеренная на высоте 2 м над землей.
Td - Температура точки росы - температура, при понижении до которой содержащийся в воздухе водяной пар достигнет насыщения.
f - Относительная влажность воздуха - влажноcть воздуха, измеренная на высоте 2 м над землей.
Te - Эффективная температура - температура, которую ощущает одетый по сезону человек в тени. Характеристика душности погоды. При расчете учитывается влияние влажности воздуха и скорости ветра на теплоощущения человека.
Tes - Эффективная температура на солнце - температура, которую ощущает человек, с поправкой на солнечный нагрев. Характеристика знойности погоды. Зависит от высоты солнца над горизонтом, облачности и скорости ветра. Ночью, в пасмурную погоду, а также при ветре 12 м/с и более поправка равна нулю.
P - Атмосферное давление - приведенное к уровню моря атмосферное давление.
Po - Атмосферное давление - измеренное на уровне метеостанции атмосферное давление.
Tmin - Минимальная температура - минимум температуры воздуха на высоте 2 м над землей.
Tmax - Максимальная температура - максимум температуры воздуха на высоте 2 м над землей.
R - Количество осадков - Количество выпавших осадков за период времени, мм. При наведении курсора мыши на число - период времени, за который выпало указанное количество осадков.
R24 - Количество осадков - Количество выпавших осадков за 24 часа, мм.
S - Снежный покров - Высота снежного покрова, см. При наведении курсора мыши на число - состояние снежного покрова и степень покрытия местности в баллах.